SCP
0 0 0 0 0 0 0 0 0 0 0 0 0 0 0 0 0 0 0 0 0 0 0 0 0 0 0 0 0 0 0 0 0 0 0 0 0 0 0 0 0 0 0
0 0 0 0 0 0 0 0 0 0 0 0 0 0 0 0 0 0 0 0 0 0 0 0 0 0 0 0 0 0 0 0 0 0 0 0 0 0 0 0 0 0 0
0 0 0 0 0 0 0 0 0 0 0 0 0 0 0 0 0 0 0 0 0 0 0 0 0 0 0 0 0 0 0 0 0 0 0 0 0 0 0 0 0 0 0
0 0 0 0 0 0 0 0 0 0 0 0 0 0 0 0 0 0 0 0 0 0 0 0 0 0 0 0 0 0 0 0 0 0 0 0 0 0 0 0 0 0 0
0 0 0 0 0 0 0 0 0 0 0 0 0 0 0 0 0 0 0 0 0 0 0 0 0 0 0 0 0 0 0 0 0 0 0 0 0 0 0 0 0 0 0
0 0 0 0 0 0 0 0 0 0 0 0 0 0 0 0 0 0 0 0 0 0 0 0 0 0 0 0 0 0 0 0 0 0 0 0 0 0 0 0 0 0 0
0 0 0 0 0 0 0 0 0 0 0 0 0 0 0 0 0 0 0 0 0 0 0 0 0 0 0 0 0 0 0 0 0 0 0 0 0 0 0 0 0 0 0
0 0 0 0 0 0 0 0 0 0 0 0 0 0 0 0 0 0 0 0 0 0 0 0 0 0 0 0 0 0 0 0 0 0 0 0 0 0 0 0 0 0 0
0 0 0 0 0 0 0 0 0 0 0 0 0 0 0 0 0 0 0 0 0 0 0 0 0 0 0 0 0 0 0 0 0 0 0 0 0 0 0 0 0 0 0
0 0 0 0 0 0 0 0 0 0 0 0 0 0 0 0 0 0 0 0 0 0 0 0 0 0 0 0 0 0 0 0 0 0 0 0 0 0 0 0 0 0 0
0 0 0 0 0 0 0 0 0 0 0 0 0 0 0 0 0 0 0 0 0 0 0 0 0 0 0 0 0 0 0 0 0 0 0 0 0 0 0 0 0 0 0
0 0 0 0 0 0 0 0 0 0 0 0 0 0 0 0 0 0 0 0 0 0 0 0 0 0 0 0 0 0 0 0 0 0 0 0 0 0 0 0 0 0 0
0 0 0 0 0 0 0 0 0 0 0 0 0 0 0 0 0 0 0 0 0 0 0 0 0 0 0 0 0 0 0 0 0 0 0 0 0 0 0 0 0 0 0
0 0 0 0 0 0 0 0 0 0 0 0 0 0 0 0 0 0 0 0 0 0 0 0 0 0 0 0 0 0 0 0 0 0 0 0 0 0 0 0 0 0 0
0 0 0 0 0 0 0 0 0 0 0 0 0 0 0 0 0 0 0 0 0 0 0 0 0 0 0 0 0 0 0 0 0 0 0 0 0 0 0 0 0 0 0
0 0 0 0 0 0 0 0 0 0 0 0 0 0 0 0 0 0 0 0 0 0 0 0 0 0 0 0 0 0 0 0 0 0 0 0 0 0 0 0 0 0 0
0 0 0 0 0 0 0 0 0 0 0 0 0 0 0 0 0 0 0 0 0 0 0 0 0 0 0 0 0 0 0 0 0 0 0 0 0 0 0 0 0 0 0
0 0 0 0 0 0 0 0 0 0 0 0 0 0 0 0 0 0 0 0 0 0 0 0 0 0 0 0 0 0 0 0 0 0 0 0 0 0 0 0 0 0 0
0 0 0 0 0 0 0 0 0 0 0 0 0 0 0 0 0 0 0 0 0 0 0 0 0 0 0 0 0 0 0 0 0 0 0 0 0 0 0 0 0 0 0
0 0 0 0 0 0 0 0 0 0 0 0 0 0 0 0 0 0 0 0 0 0 0 0 0 0 0 0 0 0 0 0 0 0 0 0 0 0 0 0 0 0 0
0 0 0 0 0 0 0 0 0 0 0 0 0 0 0 0 0 0 0 0 0 0 0 0 0 0 0 0 0 0 0 0 0 0 0 0 0 0 0 0 0 0 0
0 0 0 0 0 0 0 0 0 0 0 0 0 0 0 0 0 0 0 0 0 0 0 0 0 0 0 0 0 0 0 0 0 0 0 0 0 0 0 0 0 0 0
0 0 0 0 0 0 0 0 0 0 0 0 0 0 0 0 0 0 0 0 0 0 0 0 0 0 0 0 0 0 0 0 0 0 0 0 0 0 0 0 0 0 0
0 0 0 0 0 0 0 0 0 0 0 0 0 0 0 0 0 0 0 0 0 0 0 0 0 0 0 0 0 0 0 0 0 0 0 0 0 0 0 0 0 0 0
0 0 0 0 0 0 0 0 0 0 0 0 0 0 0 0 0 0 0 0 0 0 0 0 0 0 0 0 0 0 0 0 0 0 0 0 0 0 0 0 0 0 0
0 0 0 0 0 0 0 0 0 0 0 0 0 0 0 0 0 0 0 0 0 0 0 0 0 0 0 0 0 0 0 0 0 0 0 0 0 0 0 0 0 0 0
Wind_Speed
4 3 3 3 2 2 2 2 2 2 1 1 2 2 3 3 3 2 1 4 3 3 6 8 9 9 9 9 9 10 10 11 11 11 11 12 12 12 12 12 12 12 12
4 3 3 3 2 2 1 1 1 1 1 1 2 3 3 3 3 3 1 2 3 2 3 6 8 8 8 9 10 10 11 11 12 12 12 13 13 13 13 13 13 13 13
5 4 3 3 2 2 2 1 1 1 1 1 2 3 2 3 3 3 2 1 1 2 1 3 5 7 8 9 10 10 11 11 12 13 13 13 13 13 14 14 14 15 15
5 4 3 3 3 2 1 1 0 0 1 1 2 2 2 3 3 2 2 1 1 2 2 1 2 4 7 9 10 11 11 12 13 13 13 14 14 14 15 15 15 16 16
6 5 3 3 3 2 2 1 1 0 1 2 2 3 3 2 2 2 2 0 1 1 1 3 2 3 6 8 10 11 12 12 13 14 14 15 15 15 16 16 16 16 17
6 5 3 3 3 3 2 1 1 1 0 0 2 4 4 3 1 1 1 1 0 1 1 1 1 2 5 9 11 12 13 13 14 14 15 15 16 16 17 17 17 17 17
6 5 3 3 3 3 3 2 2 0 0 1 2 3 4 2 1 1 0 1 1 0 1 1 1 1 2 7 10 12 13 14 14 15 16 16 17 17 17 18 18 18 19
7 5 5 4 4 3 3 2 2 1 0 1 1 1 4 4 2 1 1 0 1 1 1 2 2 2 2 2 5 10 12 14 15 16 16 17 18 18 18 19 19 19 20
7 6 5 5 4 4 3 3 3 2 1 0 1 2 1 2 3 3 2 1 1 1 2 2 2 3 3 2 2 6 11 13 15 16 17 18 18 19 19 20 20 21 21
7 7 6 6 5 4 4 3 3 2 2 1 0 1 1 2 0 3 4 2 2 3 3 3 3 3 3 2 3 7 11 13 16 18 19 19 20 20 21 21 21 21 22
7 7 6 6 5 4 4 4 3 2 2 2 1 1 0 0 1 2 4 4 3 3 3 3 3 3 3 2 2 5 11 14 17 18 19 20 20 21 22 22 22 22 22
5 7 7 6 5 4 5 4 3 3 2 1 1 1 2 1 1 1 3 4 4 4 4 4 3 3 3 2 3 8 12 15 17 19 20 20 21 22 22 23 23 23 23
5 7 6 6 5 5 5 4 4 3 3 2 2 2 1 2 1 1 2 3 4 4 4 3 3 2 2 1 3 9 12 16 18 20 20 21 22 22 23 23 23 24 23
6 8 7 7 7 6 5 4 3 3 3 3 3 2 2 2 2 2 2 2 4 4 3 4 3 2 2 2 5 10 7 16 19 20 21 22 22 22 23 23 23 24 24
7 9 8 7 7 6 6 5 3 4 3 3 3 3 2 2 2 2 2 3 3 4 5 4 3 3 3 4 7 5 5 14 20 21 22 22 22 22 23 23 23 24 24
9 10 8 8 7 6 6 5 4 4 4 3 3 3 3 3 3 3 3 3 4 5 6 4 3 5 6 5 10 6 6 19 20 22 23 23 23 23 23 23 24 24 25
10 10 9 8 8 7 6 5 5 5 5 4 4 4 5 4 3 3 3 4 4 5 9 7 4 5 5 6 6 5 6 7 8 20 23 24 24 24 24 24 24 25 25
9 9 8 8 7 7 6 6 5 5 5 5 5 5 5 4 5 5 4 5 5 6 7 10 6 4 5 6 6 7 7 8 7 17 22 23 24 24 24 25 25 25 25
9 8 8 8 7 7 6 5 5 5 5 5 5 5 6 5 6 5 5 6 5 6 5 7 7 4 4 5 6 7 8 7 9 13 18 20 22 24 25 25 25 25 24
9 9 8 7 7 6 6 5 4 4 4 4 5 5 6 6 7 7 6 6 5 5 5 6 7 6 5 6 6 7 7 5 7 9 13 16 20 23 24 25 26 25 25
9 8 7 7 6 6 6 6 5 5 5 5 6 6 7 10 12 11 8 6 6 5 5 6 8 7 7 5 6 6 8 7 6 7 7 8 8 8 10 17 22 24 25
7 7 7 7 6 5 9 11 8 5 5 6 7 7 8 10 14 18 20 18 13 9 7 7 8 9 9 7 7 7 7 8 8 4 5 7 6 8 8 7 18 24 25
7 7 7 7 6 7 11 12 12 7 6 6 7 7 7 8 12 8 12 17 15 18 18 11 10 10 10 8 8 9 8 9 10 6 6 9 6 8 8 11 21 24 24
7 6 6 6 5 7 11 12 12 7 6 7 7 7 8 8 8 9 7 7 7 8 11 9 9 10 10 9 9 11 11 10 8 6 5 8 7 7 8 7 18 23 22
5 5 6 6 5 6 10 11 11 4 5 7 7 8 8 8 14 17 10 8 8 8 13 18 20 19 21 22 18 8 7 8 10 6 3 5 5 5 6 7 11 17 18
5 5 4 5 5 5 9 11 11 4 5 6 6 7 12 13 16 18 9 7 9 8 8 10 12 14 12 13 18 10 6 7 8 6 2 3 4 4 6 4 4 5 8
Wind_Direction
168 176 183 175 183 186 187 214 245 268 288 327 328 321 314 314 309 314 168 192 209 295 315 321 323 324 327 330 336 340 340 338 335 335 335 333 330 327 323 319 312 306 301
172 175 180 169 183 182 193 214 257 286 325 330 309 300 298 308 314 323 315 203 205 244 309 326 330 330 334 339 340 342 342 340 338 337 334 331 328 325 321 318 316 313 309
168 168 174 178 185 179 181 196 302 351 324 312 301 307 320 319 316 319 335 340 180 178 199 336 340 341 342 340 338 338 337 334 331 328 326 324 323 321 318 315 314 311 309
168 168 173 185 174 155 159 168 198 322 307 310 315 316 308 299 298 317 320 319 78 121 148 157 344 339 339 339 337 336 333 330 326 323 321 320 319 316 313 312 311 309 307
172 168 176 176 159 152 157 161 139 123 340 330 312 298 290 288 297 313 312 351 102 118 144 175 225 293 323 331 333 332 330 328 325 323 320 318 316 313 311 309 307 306 304
174 168 165 165 151 146 152 155 156 147 165 328 316 300 280 255 251 261 320 9 103 155 166 175 212 278 308 320 327 328 327 327 325 323 321 318 316 313 310 307 305 303 302
168 162 155 155 143 148 159 147 129 104 18 41 357 319 305 263 177 150 50 13 358 26 3 340 329 342 324 325 326 324 325 325 325 324 322 319 317 314 311 309 307 304 301
161 159 157 154 146 140 134 130 125 116 87 93 92 355 341 341 352 339 346 348 1 9 340 333 337 345 336 325 321 326 325 325 325 324 323 322 319 316 313 311 308 305 303
157 155 158 148 145 145 148 142 135 139 144 108 114 120 94 299 321 314 303 324 351 341 317 319 326 333 327 327 321 327 322 323 323 323 322 321 318 315 312 310 308 306 305
153 152 149 144 144 143 142 145 137 138 133 152 103 122 165 165 136 314 315 323 343 326 307 310 315 307 307 309 312 319 319 321 321 321 320 319 317 315 313 312 310 309 307
149 149 147 144 146 144 141 136 132 135 141 152 146 129 326 7 201 212 284 305 318 303 309 302 290 286 287 287 291 302 315 319 318 318 318 317 315 314 312 311 310 308 306
150 152 148 146 146 141 139 140 140 143 145 143 154 164 169 186 222 221 257 287 294 288 296 281 276 269 263 265 279 305 313 314 314 314 314 313 313 312 311 310 308 306 304
159 161 151 151 147 143 142 141 146 158 165 169 189 201 196 205 205 212 249 278 290 294 290 282 271 278 281 278 287 300 303 306 307 309 309 310 310 308 307 306 306 304 303
161 156 154 154 150 148 148 150 157 171 172 183 202 201 205 229 218 210 216 252 297 295 283 278 297 287 310 306 287 295 291 301 305 307 308 307 306 305 304 303 303 302 301
152 153 156 154 152 152 156 159 170 181 179 192 201 209 214 225 223 223 216 198 215 274 285 274 282 300 311 295 295 296 287 303 309 310 309 308 306 304 303 302 301 300 299
151 153 157 156 156 159 164 166 173 183 184 196 196 209 227 228 228 224 221 222 213 230 263 263 268 288 294 300 305 312 306 312 310 308 306 305 305 305 304 303 301 299 297
153 157 158 158 161 166 170 172 183 185 194 207 208 214 230 229 229 232 229 230 233 231 261 272 263 277 290 297 305 302 300 296 297 304 304 304 304 305 304 302 301 299 298
156 158 157 159 165 170 174 179 190 191 197 212 220 223 235 235 236 235 234 237 239 236 252 274 278 277 279 285 287 290 297 297 291 298 301 303 304 304 305 304 302 301 299
156 157 158 164 169 172 177 185 190 195 204 214 219 225 235 237 246 244 242 244 246 252 251 269 281 277 279 283 288 287 284 282 287 295 300 301 301 303 303 304 304 304 302
158 161 163 166 169 172 178 185 190 199 214 227 231 234 237 238 244 247 250 250 251 259 264 271 279 282 279 277 279 285 288 273 280 289 289 291 294 299 301 302 303 302 301
159 159 160 164 167 172 183 186 192 204 220 238 245 244 244 245 249 253 254 248 245 253 260 268 276 282 281 281 277 278 287 285 273 272 275 279 286 284 290 294 297 295 295
155 158 166 170 177 187 196 199 198 205 217 230 243 248 250 253 258 264 267 267 260 256 257 261 272 275 278 275 278 280 286 292 290 259 267 280 281 282 283 280 288 293 296
161 166 173 177 187 198 203 212 216 212 220 232 241 249 258 258 265 256 266 271 271 271 269 269 269 270 276 276 277 278 274 277 282 279 284 285 276 279 282 288 295 297 298
167 172 180 183 190 205 211 221 226 224 230 240 244 248 254 258 256 264 255 254 251 257 264 269 263 266 268 268 261 269 274 278 276 269 267 283 287 280 287 285 293 295 300
168 173 177 184 196 215 220 225 228 220 234 246 249 252 257 260 271 278 274 265 264 261 272 275 276 278 281 287 290 289 285 289 291 283 250 264 283 291 286 281 288 300 308
166 169 181 193 205 219 228 231 231 219 237 249 252 254 264 272 279 282 275 265 270 270 267 274 275 279 281 283 289 283 273 281 287 288 256 273 292 310 298 275 288 308 309